COSMOS 252 DEB, 3788

Orbit data source: Space-Track

COSMOS 252 DEB, 3788 is space debris in LEO originally from a launch on Fri, 01 Nov 1968 UTC launched from the Tyuratam Missile And Space Complex (TTMTR). Debris objects in space refer to the collection of defunct objects orbiting the Earth. Examples of debris include non-operational satellites, rocket bodies, and fragments generated from explosions, collisions, or faulty payload assembly.

Loading next visibility...
Identifier
3788, 1968-097BA
Orbit
LEO
Country
Flag of CISCIS
Related business
Manufacturer
Unknown
Mission
Spacecraft
Bus & Motor
Unknown
Mass
Unknown
Launch date (UTC)
1968-11-01 (58 years ago)
Launch vehicle
Unknown
Launch site
Tyuratam Missile And Space Complex (TTMTR)
Object type
Payload
Rocket body
Debris
Shape & HBR
Unknown shape, 0.1 m
Radar Cross Section
Small (<0.1 m²)

Expand to show TLE details & history
Last TLE update: 12 hours ago

TLE from 12 hours ago
0 COSMOS 252 DEB
1  3788U 68097BA  26138.49938045 -.00000037  00000-0  24153-3 0  9997
2  3788  61.8719 172.7609 0577728  12.5767 135.6383 11.88464637496899
Epoch: 2026-05-18T11:59Z
TLE epoch observation values (Epoch: 2026-05-18T11:59:06.470Z)
Latitude
23.97111°
Longitude
-76.88922°
Altitude
2,081.968 km
Speed
6.719 km/s
True Right ascension
22h 36m 17s
True Declination
23° 51' 49"
Sunlit
Object was in daylight at epoch
Visualization orbit readout
Latitude
Unknown
Longitude
Unknown
Altitude
Unknown
Speed
Unknown
Apparent Right ascension
Unknown
Apparent Declination
Unknown
Sunlit
N/A
Visualization observer readout
Local Sidereal Time
09:12:38
Azimuth
Unknown
Elevation
Unknown
Doppler factor
Unknown
Orbital elements
Apogee altitude
2,200.566 km
Perigee altitude
1,263.473 km
Semi-major axis
8,110.157 km
Eccentricity
0.05777
Inclination
61.8719°
RAAN
172.7609°
Arg. of periapsis
12.5767°
True anomaly
140.03515°
Mean anomaly
135.6383°
Eccentric anomaly
137.85925°
Mean motion
2.97166 °/min
Orbital period
121.14 mins
BSTAR
0.00024153
Loading maneuver chart data...
Computing Atmospheric mass density...

Documentation

Showing up to 5 results
|